sat.trackr.live / text

‹ back to catalog

HELIOS

NORAD 69021 · 2026-100AT

PAYLOAD ACTIVE UNKNOWN

§ Identity

Operator
Country
GREC
Launch date
2026-05-03
Launch site
AFWTR
Launch vehicle
Mass (kg)
RCS (m²)

External: N2YO · Heavens-Above · Gunter

§ Orbital elements

Epoch: 2026-05-25T04:41:57.473376Z

Period
94.76 min
Inclination
97.4051°
Eccentricity
0.0006641
Mean motion
15.19659578 rev/d
Perigee alt
502.3 km
Apogee alt
511.4 km
Semi-major
6,885.0 km
B*
3.9893e-4
RAAN
43.4018°
Arg perigee
74.8239°
Mean anomaly
285.3730°
Rev number
331

§ Raw data

HELIOS1 69021U 26100AT  26145.19580409  .00008448  00000+0  39893-3 0  99992 69021  97.4051  43.4018 0006641  74.8239 285.3730 15.19659578  3317

JSON: /api/v1/satellites/69021 · /tle

For live sub-satellite position, see the globe view (requires WebGL).

§ Visibility from observer

Set your observer location to see the next 7 days of passes ≥ 10°. The values pass through the URL so the page stays shareable.

No JS? Fill the form by hand. The geolocation button needs JavaScript.

§ Radio — SatNOGS DB

ModeDescriptionDownlinkUplink
FSK S Band 2.255 GHz

1 transmitter · refreshed weekly from db.satnogs.org